Location: Nitra
(48.3167°N, 18.0833°E)
Time: 12:35:02
(UTC+01:00)

STARLINK-1725 - Pass Details

Date: 24 September 2020
Orbit: 378 x 381 km, 53.0° (Epoch: 25 October)

Event Time Altitude Azimuth Distance (km) Brightness Sun altitude
Exits shadow 05:11:07 19° 311° (NW) 982 4.6 -15.0°
Maximum altitude 05:12:53 36° 9° (N) 621 4.1 -14.7°
Drops below altitude 10° 05:15:49 10° 79° (E) 1,397 7.1 -14.2°
Sets 05:17:58 0° 88° (E) 2,248 8.4 -13.9°
